When you browse on this site, cookies collect data to enhance your experience and personalize the content and advertising you see.
Visit our Privacy Policy to learn more. By continuing to use the site, you agree to this use of cookies and data.
  • In Sweden
  • List of Countries
  • For 7 days
  • Water Temperature
  • Satellite Maps
  • Weather Map
  • Weather Widgets
  • user-avatar
    Login

    Hourly Weather Szczytno

    Today, 23 May, Thursday

    Time Temperature Precipitation Wind Pressure Humidity
    00:00 +13°C° 0 mm 3 mps 748 mmHg 94%
    01:00 +12°C° 0 mm 3 mps 748 mmHg 96%
    02:00 +13°C° 0.1 mm 3 mps 748 mmHg 96%
    03:00 +13°C° 0.1 mm 4 mps 748 mmHg 96%
    04:00 +13°C° 0.1 mm 4 mps 749 mmHg 97%
    05:00 +13°C° 0.1 mm 4 mps 749 mmHg 96%
    06:00 +13°C° 0.1 mm 4 mps 749 mmHg 95%
    07:00 +13°C° 0.1 mm 4 mps 750 mmHg 93%
    08:00 +14°C° 0 mm 4 mps 750 mmHg 92%
    09:00 +14°C° 0 mm 5 mps 750 mmHg 90%
    10:00 +14°C° 0 mm 5 mps 750 mmHg 88%
    11:00 +15°C° 0 mm 5 mps 750 mmHg 85%
    12:00 +15°C° 0 mm 5 mps 750 mmHg 82%
    13:00 +16°C° 0 mm 6 mps 751 mmHg 80%
    14:00 +16°C° 0 mm 6 mps 751 mmHg 79%
    15:00 +15°C° 0 mm 6 mps 751 mmHg 78%
    16:00 +15°C° 0 mm 5 mps 751 mmHg 78%
    17:00 +15°C° 0 mm 5 mps 751 mmHg 78%
    18:00 +14°C° 0 mm 4 mps 751 mmHg 79%
    19:00 +14°C° 0 mm 4 mps 751 mmHg 79%
    20:00 +13°C° 0 mm 3 mps 751 mmHg 79%
    21:00 +12°C° 0 mm 3 mps 751 mmHg 79%
    22:00 +11°C° 0 mm 3 mps 752 mmHg 79%
    23:00 +10°C° 0 mm 3 mps 752 mmHg 78%

    Tomorrow, 24 May, Friday

    Time Temperature Precipitation Wind Pressure Humidity
    00:00 +10°C° 0 mm 3 mps 752 mmHg 76%
    01:00 +9°C° 0 mm 3 mps 752 mmHg 75%
    02:00 +9°C° 0 mm 3 mps 752 mmHg 78%
    03:00 +8°C° 0 mm 3 mps 752 mmHg 82%
    04:00 +8°C° 0 mm 3 mps 752 mmHg 85%
    05:00 +9°C° 0 mm 3 mps 752 mmHg 83%
    06:00 +11°C° 0 mm 3 mps 752 mmHg 80%
    07:00 +12°C° 0 mm 3 mps 752 mmHg 77%
    08:00 +14°C° 0 mm 3 mps 752 mmHg 71%
    09:00 +17°C° 0 mm 3 mps 752 mmHg 64%
    10:00 +18°C° 0 mm 2 mps 752 mmHg 58%
    11:00 +19°C° 0 mm 2 mps 751 mmHg 55%
    12:00 +20°C° 0 mm 2 mps 751 mmHg 52%
    13:00 +20°C° 0 mm 2 mps 751 mmHg 49%
    14:00 +20°C° 0 mm 2 mps 750 mmHg 50%
    15:00 +21°C° 0 mm 2 mps 750 mmHg 51%
    16:00 +21°C° 0 mm 2 mps 750 mmHg 52%
    17:00 +19°C° 0 mm 2 mps 750 mmHg 59%
    18:00 +18°C° 0 mm 2 mps 749 mmHg 65%
    19:00 +17°C° 0 mm 2 mps 749 mmHg 72%
    20:00 +16°C° 0 mm 2 mps 749 mmHg 75%
    21:00 +15°C° 0 mm 1 mps 749 mmHg 79%
    22:00 +13°C° 0 mm 1 mps 749 mmHg 82%
    23:00 +13°C° 0 mm 2 mps 749 mmHg 83%

    Day after tomorrow, 25 May, Saturday

    Time Temperature Precipitation Wind Pressure Humidity
    00:00 +12°C° 0 mm 2 mps 749 mmHg 83%
    01:00 +12°C° 0 mm 2 mps 749 mmHg 84%
    02:00 +11°C° 0 mm 3 mps 749 mmHg 81%
    03:00 +11°C° 0 mm 3 mps 749 mmHg 78%
    04:00 +11°C° 0 mm 3 mps 748 mmHg 76%
    05:00 +12°C° 0 mm 3 mps 748 mmHg 74%
    06:00 +13°C° 0 mm 4 mps 748 mmHg 73%
    07:00 +15°C° 0 mm 4 mps 749 mmHg 72%
    08:00 +17°C° 0.1 mm 4 mps 749 mmHg 71%
    09:00 +17°C° 0.1 mm 5 mps 749 mmHg 69%
    10:00 +19°C° 0.1 mm 5 mps 749 mmHg 68%
    11:00 +19°C° 0 mm 6 mps 749 mmHg 64%
    12:00 +20°C° 0 mm 6 mps 749 mmHg 60%
    13:00 +20°C° 0 mm 7 mps 749 mmHg 56%
    14:00 +20°C° 0 mm 6 mps 748 mmHg 57%
    15:00 +20°C° 0 mm 6 mps 748 mmHg 57%
    16:00 +19°C° 0 mm 6 mps 748 mmHg 58%
    17:00 +17°C° 0 mm 5 mps 748 mmHg 64%
    18:00 +17°C° 0 mm 3 mps 748 mmHg 70%
    19:00 +15°C° 0 mm 2 mps 748 mmHg 76%
    20:00 +14°C° 0 mm 2 mps 748 mmHg 78%
    21:00 +13°C° 0 mm 2 mps 748 mmHg 80%
    22:00 +12°C° 0 mm 2 mps 748 mmHg 82%
    23:00 +11°C° 0 mm 3 mps 748 mmHg 81%

    26 May, Sunday

    Time Temperature Precipitation Wind Pressure Humidity
    00:00 +12°C° 0 mm 4 mps 748 mmHg 80%
    01:00 +12°C° 0 mm 4 mps 748 mmHg 79%
    02:00 +11°C° 0 mm 4 mps 748 mmHg 82%
    03:00 +10°C° 0 mm 4 mps 747 mmHg 84%
    04:00 +8°C° 0 mm 4 mps 747 mmHg 86%
    05:00 +9°C° 0 mm 5 mps 747 mmHg 85%
    06:00 +9°C° 0 mm 6 mps 747 mmHg 83%
    07:00 +10°C° 0 mm 6 mps 747 mmHg 81%
    08:00 +10°C° 0.5 mm 6 mps 747 mmHg 82%
    09:00 +9°C° 0.5 mm 6 mps 747 mmHg 84%
    10:00 +9°C° 0.5 mm 6 mps 747 mmHg 86%
    11:00 +10°C° 0.4 mm 7 mps 747 mmHg 83%
    12:00 +10°C° 0.4 mm 8 mps 747 mmHg 80%
    13:00 +11°C° 0.4 mm 8 mps 747 mmHg 78%
    14:00 +10°C° 0.2 mm 8 mps 747 mmHg 77%
    15:00 +10°C° 0.2 mm 7 mps 747 mmHg 77%
    16:00 +10°C° 0.2 mm 7 mps 747 mmHg 77%
    17:00 +10°C° 0 mm 6 mps 747 mmHg 76%
    18:00 +9°C° 0 mm 5 mps 748 mmHg 76%
    19:00 +9°C° 0 mm 5 mps 748 mmHg 76%
    20:00 +8°C° 0 mm 4 mps 748 mmHg 79%
    21:00 +7°C° 0 mm 4 mps 748 mmHg 82%
    22:00 +7°C° 0 mm 3 mps 749 mmHg 86%
    23:00 +5°C° 0 mm 3 mps 749 mmHg 88%

    27 May, Monday

    Time Temperature Precipitation Wind Pressure Humidity
    00:00 +5°C° 0 mm 3 mps 749 mmHg 90%
    01:00 +5°C° 0 mm 3 mps 749 mmHg 92%
    02:00 +5°C° 0 mm 3 mps 749 mmHg 92%
    03:00 +4°C° 0 mm 3 mps 749 mmHg 92%
    04:00 +5°C° 0 mm 2 mps 749 mmHg 92%
    05:00 +7°C° 0 mm 3 mps 749 mmHg 87%
    06:00 +9°C° 0 mm 3 mps 748 mmHg 82%
    07:00 +12°C° 0 mm 4 mps 748 mmHg 76%
    08:00 +13°C° 0 mm 4 mps 748 mmHg 73%
    09:00 +15°C° 0 mm 5 mps 748 mmHg 69%
    10:00 +17°C° 0 mm 5 mps 747 mmHg 66%
    11:00 +19°C° 0.1 mm 5 mps 747 mmHg 65%
    12:00 +21°C° 0.1 mm 6 mps 746 mmHg 64%
    13:00 +22°C° 0.1 mm 6 mps 746 mmHg 64%
    14:00 +22°C° 0.2 mm 6 mps 745 mmHg 64%
    15:00 +22°C° 0.2 mm 6 mps 745 mmHg 64%
    16:00 +22°C° 0.2 mm 6 mps 745 mmHg 64%
    17:00 +21°C° 0.3 mm 5 mps 745 mmHg 69%
    18:00 +20°C° 0.3 mm 4 mps 744 mmHg 74%
    19:00 +19°C° 0.3 mm 3 mps 744 mmHg 79%
    20:00 +18°C° 0.2 mm 3 mps 744 mmHg 83%
    21:00 +17°C° 0.2 mm 3 mps 744 mmHg 86%
    22:00 +16°C° 0.2 mm 3 mps 744 mmHg 89%
    23:00 +14°C° 0.2 mm 3 mps 744 mmHg 90%

    28 May, Tuesday

    Time Temperature Precipitation Wind Pressure Humidity
    00:00 +14°C° 0.2 mm 3 mps 744 mmHg 91%
    01:00 +14°C° 0.2 mm 3 mps 744 mmHg 93%
    02:00 +14°C° 0.2 mm 2 mps 744 mmHg 93%
    03:00 +14°C° 0.2 mm 2 mps 743 mmHg 94%
    04:00 +14°C° 0.2 mm 2 mps 743 mmHg 95%
    05:00 +15°C° 1.1 mm 2 mps 743 mmHg 95%
    06:00 +15°C° 1.1 mm 2 mps 743 mmHg 95%
    07:00 +15°C° 1.1 mm 2 mps 743 mmHg 95%
    08:00 +15°C° 1.5 mm 2 mps 743 mmHg 95%
    09:00 +14°C° 1.5 mm 3 mps 743 mmHg 95%
    10:00 +14°C° 1.5 mm 3 mps 743 mmHg 95%
    11:00 +14°C° 0.5 mm 3 mps 743 mmHg 93%
    12:00 +14°C° 0.5 mm 4 mps 743 mmHg 91%
    13:00 +15°C° 0.5 mm 4 mps 744 mmHg 89%
    14:00 +15°C° 0 mm 4 mps 744 mmHg 85%
    15:00 +17°C° 0 mm 3 mps 744 mmHg 80%
    16:00 +17°C° 0 mm 3 mps 744 mmHg 75%
    17:00 +17°C° 0 mm 3 mps 744 mmHg 78%
    18:00 +16°C° 0 mm 2 mps 745 mmHg 80%
    19:00 +15°C° 0 mm 1 mps 745 mmHg 83%
    20:00 +14°C° 0 mm 1 mps 745 mmHg 86%
    21:00 +13°C° 0 mm 1 mps 746 mmHg 89%
    22:00 +12°C° 0 mm 1 mps 746 mmHg 92%
    23:00 +12°C° 0 mm 1 mps 746 mmHg 92%
    Show more